Погода в Смоленщине

Россия / Иркутская область     52°15′18″N   104°07′34″E
темп.,
°C
ветер,
м/с
пор.,
м/с
влажн.,
%
обл.,
%
осадки,
мм/ч
давл.,
гПа
погр.,
м
18 августа, чт
чт1823:00+10вюв11789 0.0 101011
02:00+8вюв1185100 0.0 101023
05:00+9ю0182100 0.0 101026
08:00+11вюв017495 0.0 1009139
11:00+15з0159100 0.0 1008814
14:00+16сз2256100 0.2 10081195
17:00+15сз3556100 0.1 1008972
20:00+12зсз4870100 0.1 1010599
19 августа, пт
пт1923:00+9зсз3685100 0.0 1012225
02:00+7зюз12925 0.0 101349
05:00+6ю00928 0.0 101314
08:00+9ююв12772 0.0 1013212
11:00+17вюв124525 0.0 10101169
14:00+20в1235100 0.0 10071825
17:00+19вюв1234100 0.0 10062015
20:00+14ю2461100 0.0 100793
20 августа, сб
сб2023:00+9вюв117399 0.0 100829
02:00+8ссз1278100 0.0 100947
05:00+8сз2478100 0.0 1010114
08:00+10сз2574100 0.0 1010352
11:00+14ссз4558100 0.0 10091011
14:00+14сз4559100 0.1 10091010
17:00+13зсз4666100 0.1 1010774
20:00+10з41088100 0.4 1011511
21 августа, вс
вс2123:00+9зсз4119198 0.3 1013666
02:00+9зсз41093100 0.4 1014727
05:00+9зсз499299 0.1 1015625
08:00+10зсз498692 0.2 1016709
11:00+12зсз4766100 0.2 10161423
14:00+10сз3782100 0.4 1017889
17:00+14сз466183 0.1 10151325
20:00+11сз127794 0.1 101660
22 августа, пн
пн2223:00+9ююз1187100 0.0 101728
02:00+7ю119226 0.0 101815
05:00+6ююв11935 0.0 101815
08:00+10ююв117513 0.0 1017138
11:00+17ссз114860 0.0 10161100
14:00+19ссз224198 0.0 10141978
17:00+17ссв3450100 0.0 1015728
20:00+14св1162100 0.0 101615